Location: Unspecified
(0.0000°N, 0.0000°E)
Time: 21:21:38
(UTC+00:00)

COSMOS 2491 DEB - Visible Passes

Search period start: 29 April 2025 00:00
Search period end: 09 May 2025 00:00
Orbit: 1513 x 1611 km, 82.5° (Epoch: 04 August)

Date Brightness Start Highest point End Pass type
(mag) Time Alt. Az. Time Alt. Az. Time Alt. Az.
29 Apr ? 04:21:16 10° NNE 04:29:56 48° E 04:38:56 10° SSE visible
30 Apr ? 04:02:21 10° NNE 04:10:38 38° E 04:19:10 10° SSE visible
01 May ? 03:43:37 10° NNE 03:51:20 30° E 03:59:15 10° SE visible
01 May ? 18:38:15 10° WSW 18:40:45 11° W 18:43:15 10° WNW visible
02 May ? 03:25:08 10° NE 03:32:03 24° E 03:39:06 10° SE visible
02 May ? 05:22:14 10° NNW 05:30:52 46° W 05:39:53 10° SSW visible
02 May ? 18:16:26 10° WSW 18:21:28 16° W 18:26:26 10° NW visible
03 May ? 03:06:59 10° NE 03:12:45 18° E 03:18:37 10° SE visible
03 May ? 05:02:36 10° NNW 05:11:33 58° W 05:20:55 10° S visible
04 May ? 02:49:32 10° ENE 02:53:29 13° E 02:57:29 10° ESE visible
04 May ? 04:43:05 10° N 04:52:15 72° W 05:01:49 10° S visible
05 May ? 04:23:42 10° N 04:32:58 87° W 04:42:37 10° S visible
06 May ? 04:04:26 10° N 04:13:41 77° E 04:23:19 10° S visible
07 May ? 03:45:18 10° N 03:54:25 63° E 04:03:53 10° SSE visible
08 May ? 03:26:17 10° NNE 03:35:10 50° E 03:44:21 10° SSE visible
08 May ? 05:27:29 10° NW 05:34:08 22° W 05:41:00 10° SW visible
